Location: Banff
(51.1667°N, 115.5667°W)
Time: 22:53:52
(UTC+00:00)

Tiros 1 - Visible Passes

Search period start: 05 December 2020 00:00
Search period end: 15 December 2020 00:00
Orbit: 630 x 664 km, 48.4° (Epoch: 05 December)

Date Brightness Start Highest point End Pass type
(mag) Time Alt. Az. Time Alt. Az. Time Alt. Az.
05 Dec 8.3 01:30:25 10° W 01:34:54 40° SSW 01:38:43 14° SE visible
05 Dec 9.7 03:13:39 10° WSW 03:16:13 14° SW 03:16:24 14° SW visible
06 Dec 7.9 00:14:13 10° W 00:18:56 56° SSW 00:23:37 10° ESE visible
06 Dec 9.0 01:56:36 10° W 02:00:36 26° SSW 02:04:13 12° SSE visible
07 Dec 8.4 00:40:14 10° W 00:44:46 42° SSW 00:49:16 10° SE visible
07 Dec 9.8 02:23:19 10° WSW 02:26:07 16° SW 02:28:55 10° S visible
08 Dec 9.2 01:06:24 10° W 01:10:28 28° SSW 01:14:31 10° SSE visible
09 Dec 9.9 01:33:01 10° WSW 01:36:01 17° SW 01:39:01 10° S visible
10 Dec 9.3 00:16:11 10° W 00:20:21 29° SSW 00:24:28 10° SSE visible
11 Dec 10.0 00:42:43 10° W 00:45:55 18° SW 00:49:05 10° S visible
